Weather History For Prescott AZ
This page updates 5 minutes after midnight. GMT -7
Station: KPRC0 Rows: 26
| Year | Date | Temp (°F) | Tmin (°F) | Tmax (°F) | RH% | Prcp | Snow | Wind | Gust | Pres | Sun | Cloud |
|---|---|---|---|---|---|---|---|---|---|---|---|---|
| 2000 | 2000-04-17 | 59.2 | 41.0 | 70.0 | 28 | — | — | 19.0 | — | 29.89 | — | 3 |
| 2001 | 2001-04-17 | 61.0 | 42.1 | 80.1 | 26 | — | — | 10.5 | — | 30.01 | — | 0 |
| 2002 | 2002-04-17 | 53.1 | 39.2 | 62.6 | 43 | — | — | 20.7 | — | 29.87 | — | 0 |
| 2003 | 2003-04-17 | 47.1 | — | — | 41 | — | — | 15.0 | — | 29.78 | — | 2 |
| 2004 | 2004-04-17 | 55.6 | 44.6 | 64.4 | 31 | — | — | 26.6 | — | 0.00 | — | 2 |
| 2005 | 2005-04-17 | 58.6 | 41.0 | 73.0 | 27 | 0.0 | — | 13.1 | — | 29.91 | — | 0 |
| 2006 | 2006-04-17 | 55.6 | 46.9 | 66.0 | 32 | 0.0 | — | 18.2 | — | 29.84 | — | 0 |
| 2007 | 2007-04-17 | 54.9 | 37.9 | 69.1 | 35 | 0.0 | — | 13.1 | — | 29.99 | — | — |
| 2008 | 2008-04-17 | 46.9 | 30.9 | 64.0 | 20 | 0.0 | — | 14.2 | — | 30.04 | — | 0 |
| 2009 | 2009-04-17 | 45.3 | 30.0 | 60.1 | 48 | 0.0 | — | 14.3 | — | 30.03 | — | 0 |
| 2010 | 2010-04-17 | 57.6 | 37.0 | 73.9 | 30 | 0.0 | — | 8.2 | — | 29.89 | — | 0 |
| 2011 | 2011-04-17 | 64.0 | 46.0 | 78.1 | 29 | 0.0 | — | 15.6 | — | 29.77 | — | 0 |
| 2012 | 2012-04-17 | 57.9 | 39.9 | 75.0 | 37 | 0.0 | — | 10.4 | — | 30.01 | — | 0 |
| 2013 | 2013-04-17 | 43.9 | 34.0 | 53.1 | 35 | 0.0 | — | 20.3 | — | 29.84 | — | 3 |
| 2014 | 2014-04-17 | 61.5 | 42.1 | 77.0 | 22 | 0.0 | — | 11.6 | — | 29.84 | — | 0 |
| 2015 | 2015-04-17 | 48.4 | 33.1 | 61.0 | 40 | — | — | 10.5 | — | 29.99 | — | — |
| 2016 | 2016-04-17 | 51.4 | 36.0 | 63.0 | 32 | 0.0 | — | 14.8 | — | 29.99 | — | 1 |
| 2017 | 2017-04-17 | 60.3 | 45.0 | 73.9 | 30 | 0.0 | — | 14.8 | — | 29.93 | — | 0 |
| 2018 | 2018-04-17 | 49.8 | 37.0 | 62.1 | 23 | — | — | 19.3 | — | 29.89 | — | 0 |
| 2019 | 2019-04-17 | 52.9 | 42.1 | 68.0 | 55 | — | — | 14.7 | — | 29.94 | — | — |
| 2020 | 2020-04-17 | 54.0 | 39.0 | 66.0 | 34 | — | — | 19.6 | — | 29.85 | — | 0 |
| 2021 | 2021-04-17 | 49.5 | 36.0 | 61.0 | 34 | 0.0 | — | 10.0 | — | 29.88 | — | — |
| 2022 | 2022-04-17 | 58.3 | 37.0 | 78.1 | 26 | 0.0 | — | 9.3 | — | 30.00 | — | 0 |
| 2023 | 2023-04-17 | 58.6 | 41.0 | 73.0 | 29 | 0.0 | — | 14.6 | — | 29.79 | — | 0 |
| 2024 | 2024-04-17 | 59.5 | 41.0 | 73.9 | 29 | 0.0 | — | 12.7 | — | 29.93 | — | 0 |
| 2025 | 2025-04-17 | 53.6 | 45.0 | 62.1 | 39 | 0.0 | — | 16.3 | — | 29.72 | — | 0 |